SCP
1 1 1 2 2 2 4 6 8 10 11 11 10 9 8 6 5 4 4 4 2 2 2 2 2 2 1 1 1 1 1 1 1 1 1 1 1 1 1 1 1 1 2
1 1 1 2 2 2 3 5 8 10 11 11 10 9 8 7 5 4 4 4 3 3 3 3 2 2 2 2 2 2 1 1 1 1 1 1 1 1 1 1 1 2 2
2 2 2 2 2 2 3 4 7 9 11 11 10 9 9 8 7 5 4 4 4 4 4 3 3 3 2 2 2 2 2 1 1 1 1 1 1 1 1 1 1 1 2
3 3 3 3 2 2 3 4 6 8 9 9 9 8 9 9 8 6 4 4 4 5 5 5 5 4 3 3 3 3 3 2 1 1 1 1 1 1 1 1 1 1 1
4 5 5 5 5 4 5 6 7 8 8 8 8 8 8 8 7 6 5 5 5 6 6 7 6 6 5 4 4 4 4 3 2 2 2 1 2 2 2 1 1 1 2
5 5 5 6 6 7 7 8 9 8 7 7 7 7 6 6 6 6 5 5 6 6 7 8 9 8 7 6 6 6 6 4 3 3 2 2 2 2 2 2 1 2 2
5 4 4 5 6 6 7 8 9 9 7 6 6 6 5 5 5 5 5 5 5 6 6 8 10 11 10 9 9 8 7 5 5 4 3 2 2 2 2 2 2 2 2
3 4 5 6 7 7 7 8 9 8 7 5 5 5 5 4 4 4 4 4 5 5 5 7 10 12 12 12 11 10 8 6 5 5 4 3 2 2 2 3 3 3 3
2 3 6 9 9 9 9 9 9 8 7 5 5 5 4 4 3 3 3 4 4 5 6 7 9 11 12 12 11 10 8 7 6 6 5 4 3 3 3 3 3 3 3
3 4 6 8 9 8 8 9 9 8 8 7 6 5 5 4 4 3 3 3 4 5 5 7 9 10 10 10 9 9 8 7 7 6 6 5 4 4 4 4 4 4 4
3 4 5 6 6 6 7 8 8 8 8 8 7 6 5 5 5 4 4 4 4 4 4 5 6 7 8 8 8 8 8 8 7 6 6 5 5 5 4 4 4 4 5
4 4 5 5 4 5 7 7 7 8 8 9 8 7 6 6 5 5 5 4 4 4 4 4 5 5 6 7 8 8 7 7 7 14 18 13 7 6 6 5 5 5 5
6 6 7 6 6 7 7 7 7 7 8 9 8 8 7 6 6 5 5 5 5 5 5 5 5 6 6 7 8 8 7 7 7 19 31 19 8 8 8 7 7 6 6
6 7 8 8 8 9 9 8 7 6 6 7 7 7 7 6 5 4 4 4 5 5 5 5 5 6 6 7 7 8 7 7 7 14 19 15 8 9 9 9 9 8 8
5 5 6 7 8 8 9 8 7 6 5 5 5 6 6 5 4 4 4 4 4 4 4 4 4 5 5 5 6 6 6 6 6 6 6 6 6 7 7 7 7 8 8
7 6 5 5 6 7 8 8 7 6 5 5 5 5 5 5 4 4 4 4 4 4 4 4 4 4 4 3 3 4 4 5 5 5 5 5 4 4 4 4 4 4 5
11 8 6 6 6 6 7 7 6 6 5 6 6 6 6 5 5 4 4 5 5 5 5 5 5 5 4 2 2 2 3 4 5 5 5 5 4 4 4 3 3 3 3
13 11 10 8 7 6 6 6 6 6 6 6 7 7 7 6 6 5 5 6 6 6 5 6 7 6 4 2 1 2 3 4 4 4 4 5 5 4 4 4 4 4 4
12 11 11 10 9 8 7 6 6 7 7 8 8 8 7 7 7 6 7 7 7 7 7 8 8 7 4 2 1 2 3 3 3 4 4 4 4 4 3 4 5 5 5
12 10 9 9 9 9 8 8 8 8 8 8 7 7 7 7 7 7 8 9 9 9 9 9 8 6 4 3 1 1 2 3 3 3 3 3 3 3 2 3 4 4 5
11 10 8 8 8 8 9 9 9 8 7 7 7 6 6 6 7 8 11 12 11 10 9 8 7 5 4 2 1 1 2 3 3 3 3 3 2 2 2 2 2 3 3
12 11 9 7 7 7 7 8 8 7 6 7 7 7 7 6 6 8 12 14 12 11 9 8 7 5 3 3 2 1 1 2 3 3 3 3 2 2 1 1 1 2 2
12 11 9 7 7 6 6 6 6 6 6 6 6 7 8 8 7 8 10 12 12 11 11 9 7 5 4 4 3 2 1 1 2 3 3 3 2 2 2 2 1 2 2
11 9 7 6 6 5 5 6 6 7 6 5 5 5 6 8 8 8 8 10 11 12 11 10 7 5 4 4 5 4 2 2 2 3 3 3 2 2 3 3 2 2 2
10 7 5 5 5 5 5 5 7 7 7 6 4 3 4 6 7 7 6 6 8 9 9 8 6 4 3 4 5 6 6 5 4 5 5 5 4 4 5 5 4 4 4
9 7 5 5 5 5 5 6 7 7 7 6 4 3 3 4 6 6 5 4 5 5 6 7 6 4 2 2 4 6 8 8 6 6 7 7 7 6 6 6 6 5 5
Wind_Speed
11 10 10 10 10 9 7 6 5 4 3 2 2 1 1 2 1 2 3 3 2 2 2 2 1 1 1 1 0 0 1 0 0 1 1 0 1 2 2 2 1 2 3
11 10 10 10 10 9 7 6 5 4 3 2 1 1 1 1 1 2 2 2 1 1 1 1 1 1 1 0 0 1 1 1 1 1 0 0 1 1 1 2 2 2 2
13 11 10 10 10 9 8 7 6 5 4 3 2 1 1 1 1 2 2 1 1 1 1 1 1 1 0 0 0 0 1 1 0 0 1 1 0 1 0 1 1 1 1
11 11 10 10 10 9 8 7 6 5 4 3 2 2 1 1 1 1 2 2 1 1 1 1 1 1 1 1 1 1 1 0 1 0 1 1 1 1 0 0 1 1 1
10 10 10 9 9 9 8 8 7 5 4 3 2 2 1 1 1 2 2 1 1 1 1 1 1 1 1 1 1 1 1 1 1 0 0 1 1 1 2 1 1 1 1
9 9 9 8 8 8 8 8 7 5 4 3 2 2 1 1 1 1 1 1 1 1 1 1 1 1 1 0 0 1 1 1 2 2 1 1 0 1 1 1 1 1 0
8 7 8 8 7 7 7 7 7 5 5 4 3 2 1 1 1 1 1 1 1 1 1 1 1 0 0 0 1 1 1 1 1 1 1 1 1 1 0 1 1 1 1
8 6 6 7 6 7 6 7 7 5 5 4 3 2 2 1 1 1 1 0 0 1 1 1 1 1 1 0 0 0 1 0 1 1 1 1 2 2 1 0 0 1 1
9 8 6 6 6 6 6 6 7 5 5 4 3 2 2 1 0 0 0 1 1 0 1 1 1 1 0 0 0 0 0 0 1 1 1 1 1 2 2 2 1 1 1
9 9 7 4 5 6 6 6 7 6 5 5 4 3 2 2 1 1 1 0 1 1 1 1 1 0 0 0 0 0 0 0 0 1 1 2 2 2 2 2 2 1 1
7 8 7 6 5 5 5 4 5 5 5 4 3 3 3 2 2 1 1 1 1 1 1 0 0 0 0 1 1 1 0 1 1 1 1 1 2 2 2 2 2 1 1
8 7 7 6 5 5 5 4 4 4 4 4 3 3 2 2 2 1 1 1 1 1 1 1 1 1 1 1 1 2 1 1 1 1 1 2 2 2 2 2 2 2 2
8 7 7 6 5 4 4 3 3 3 3 3 3 3 2 2 2 1 1 1 1 1 0 1 1 1 1 1 1 1 1 1 1 1 1 1 1 2 2 3 3 3 3
7 6 6 5 4 4 3 3 2 2 2 2 2 2 2 3 2 2 1 1 1 1 0 0 1 1 1 1 1 2 2 1 1 1 1 1 1 2 3 3 3 3 3
6 6 5 4 4 3 3 2 1 1 2 2 2 2 2 2 2 1 1 1 1 1 0 0 1 1 1 2 2 3 2 1 1 1 1 1 1 2 2 3 3 3 3
5 5 4 4 3 3 2 1 0 1 1 2 2 2 2 2 2 2 1 1 1 1 0 0 0 1 2 3 4 3 3 1 2 1 2 1 1 2 2 3 3 3 3
5 3 3 3 3 3 3 2 1 1 1 1 1 1 1 1 1 2 1 1 1 1 1 1 0 1 2 3 4 4 3 2 1 1 2 3 2 1 2 3 4 4 4
4 3 2 2 3 3 3 2 1 1 1 1 1 1 1 1 1 1 1 1 1 1 1 1 1 1 1 2 3 4 3 2 2 2 1 1 2 3 3 3 3 3 3
4 3 2 2 1 1 1 1 1 1 1 1 1 0 1 1 1 1 1 1 1 1 1 1 1 1 1 2 3 3 2 2 2 2 1 1 1 3 4 3 3 4 4
4 3 2 3 2 2 1 1 1 1 1 0 0 0 1 1 1 1 1 1 1 2 2 1 1 2 2 2 1 2 2 2 2 2 1 1 1 2 2 3 3 4 4
4 4 3 3 3 2 2 1 1 2 2 1 1 1 1 1 1 1 1 1 1 2 2 2 2 3 2 2 2 2 2 3 3 3 1 1 2 3 4 4 4 5 5
4 4 4 3 3 3 2 1 1 1 1 1 1 1 1 2 1 1 1 1 2 2 2 2 3 2 2 1 1 2 4 4 4 3 2 2 3 4 5 5 6 7 6
3 3 3 3 3 3 2 2 2 2 1 1 1 1 2 1 0 1 1 2 1 2 2 2 3 2 1 1 1 2 4 5 4 3 4 5 4 4 5 6 7 6 4
1 1 1 1 2 2 3 3 2 2 1 1 1 1 2 1 0 1 1 2 2 2 2 2 2 2 1 0 0 1 2 3 3 4 5 5 5 5 5 4 5 5 4
1 1 1 0 1 2 2 3 2 1 2 2 1 2 2 1 1 2 2 2 1 2 2 2 2 2 2 1 2 1 2 2 3 4 4 3 2 3 3 3 2 2 3
1 1 1 1 2 2 2 2 2 2 2 2 2 2 2 2 2 2 1 1 1 1 1 1 2 1 1 2 3 3 3 4 4 3 3 3 3 3 2 2 2 2 2
Wind_Direction
147 145 144 136 132 128 129 130 125 120 126 120 125 124 122 125 120 110 94 90 59 47 40 46 57 61 79 65 49 292 236 205 100 79 14 329 210 161 160 172 168 164 165
146 148 149 142 139 138 139 134 132 133 140 118 113 123 120 117 108 90 99 100 83 42 95 55 40 49 87 38 276 239 265 219 147 148 107 26 353 345 178 161 175 169 172
151 155 154 147 145 144 146 149 147 147 157 149 145 119 113 88 93 117 118 107 103 78 39 57 49 334 64 301 240 298 225 266 210 143 161 163 158 276 345 135 146 136 153
145 157 159 156 152 149 150 144 142 150 153 158 163 161 152 140 138 125 118 116 121 115 103 84 78 24 41 346 303 19 300 265 265 225 184 183 161 163 265 357 113 159 166
139 147 152 154 153 151 151 146 143 145 147 167 168 168 146 123 130 121 112 127 148 161 113 86 66 70 75 29 351 17 352 1 337 304 267 230 203 206 188 213 246 219 183
134 139 139 137 141 144 145 144 141 143 149 162 151 148 144 141 119 108 133 188 154 156 138 136 99 73 101 111 18 360 34 23 357 344 342 322 270 217 191 206 230 230 247
114 123 133 140 138 136 140 136 138 147 150 154 151 157 164 168 149 196 200 233 182 148 117 121 120 113 172 177 68 63 41 20 349 333 328 327 325 330 278 209 255 256 266
124 117 127 138 141 140 135 137 139 150 160 163 165 169 173 194 190 234 286 275 14 69 106 111 142 172 219 108 102 180 177 95 308 330 345 328 332 323 313 242 257 288 290
129 123 119 132 135 140 134 138 143 153 161 157 157 161 172 217 243 190 324 340 347 35 83 103 116 99 67 29 33 300 339 5 303 316 314 290 306 312 313 302 268 238 271
134 131 126 116 134 134 129 136 147 155 158 160 174 169 169 186 201 251 134 91 4 17 41 34 49 34 5 353 249 265 309 154 222 263 319 330 306 304 301 300 301 283 238
119 116 122 127 116 117 121 121 144 155 158 165 174 163 163 182 199 210 193 152 193 229 207 219 296 295 325 318 306 271 268 276 271 267 271 288 309 318 321 322 322 317 308
119 118 115 108 101 97 101 109 131 146 157 158 158 160 159 175 193 186 163 200 199 225 235 229 254 257 278 303 299 293 272 277 294 303 310 306 306 314 323 322 319 312 290
111 109 107 101 91 85 85 97 112 134 136 137 153 152 161 177 189 188 170 192 199 214 258 278 292 315 327 316 316 308 297 285 287 296 295 300 310 313 312 307 311 310 309
111 107 108 107 98 92 89 88 92 114 125 136 164 159 176 181 189 196 178 166 182 206 202 260 319 345 347 337 314 301 283 291 288 288 292 309 319 312 303 298 306 305 304
121 116 116 112 112 101 91 89 86 99 125 152 185 161 188 176 179 184 178 169 197 204 148 348 345 334 317 331 330 299 277 276 293 295 311 316 348 359 331 323 328 320 315
126 123 122 122 122 122 120 112 125 96 121 172 175 155 169 170 183 191 181 184 191 193 144 142 16 336 333 351 355 334 310 296 282 305 318 287 11 348 325 320 318 310 302
128 122 126 137 143 148 144 149 148 144 161 161 140 140 156 165 186 209 185 193 195 191 225 247 151 99 359 349 342 324 299 294 288 292 299 300 324 350 312 298 289 289 283
126 120 123 129 151 154 145 150 174 169 162 128 139 170 194 196 187 206 195 191 194 205 223 210 194 159 330 331 322 309 277 280 287 282 284 301 326 322 326 303 295 285 283
109 113 117 110 83 95 104 148 197 197 184 157 166 256 260 230 184 211 226 223 210 219 222 212 208 198 300 310 306 300 273 272 274 260 260 262 289 333 336 316 304 296 290
84 80 70 68 64 61 61 348 319 308 291 305 7 295 285 294 272 236 232 237 232 227 220 213 223 233 234 238 256 281 271 279 280 260 214 183 249 294 304 294 294 296 305
74 67 58 53 49 47 52 2 327 320 335 335 316 287 273 267 254 232 229 226 251 246 231 224 227 232 227 207 203 220 273 299 296 287 267 284 296 279 274 276 274 278 288
67 63 58 45 36 33 31 357 333 326 345 352 344 337 315 280 257 224 255 249 251 256 252 249 250 235 216 203 217 234 254 285 290 294 305 301 299 280 270 269 276 283 283
63 63 64 42 24 21 4 332 339 349 358 20 14 340 311 298 306 241 246 257 237 244 259 259 262 258 219 212 222 240 266 283 288 302 311 310 284 266 257 256 269 277 272
107 94 82 43 8 355 345 340 344 346 348 348 327 281 282 283 305 278 256 251 251 240 245 254 267 279 266 290 332 282 270 277 283 294 293 281 263 260 266 260 253 252 262
83 96 98 38 336 343 337 334 342 343 324 313 296 285 280 281 259 260 275 259 262 237 247 272 274 282 286 292 280 254 264 273 277 287 276 269 271 254 251 254 255 263 269
36 20 8 336 333 336 335 339 337 326 305 294 301 298 286 285 276 258 270 14 220 170 180 225 260 259 253 274 270 262 255 263 266 260 263 269 267 273 272 276 275 271 277